Afton, Prince Edward Island

2:56 AM ADT on July 21, 2017 (GMT -0300)
Afton

Weather History for 71706 - September, 2013

Change the Weather History Date:

Sunday, September 22, 2013

  Actual Average Record
Temperature  
Mean Temperature 67 °F -  
Max Temperature 75 °F 57 °F - ()
Min Temperature 59 °F 41 °F - ()
Cooling Degree Days 2    
Growing Degree Days 17 (Base 50)    
Moisture  
Dew Point 61 °F    
Average Humidity 81    
Maximum Humidity 94    
Minimum Humidity 58    
Precipitation  
Precipitation 0.20 in 0.14 in - ()
Sea Level Pressure  
Sea Level Pressure 29.83 in    
Wind  
Wind Speed 15 mph ()    
Max Wind Speed 25 mph    
Max Gust Speed 33 mph    
Visibility 15.0 miles    
Events      
T = Trace of Precipitation, MM = Missing Value Source: Averaged Metar Reports

Daily Weather History Graph

Daily Weather History Graph

Search for Another Location

Airport or City:

Trip Planner

Search our weather history database for the weather conditions in past years. The results will help you decide how hot, cold, wet, or windy it might be!

Date:

Astronomy

Sep. 22, 2013 Rise Set
Actual Time 6:59 AM ADT 7:09 PM ADT
Civil Twilight 6:29 AM ADT 7:39 PM ADT
Nautical Twilight 5:54 AM ADT 8:14 PM ADT
Astronomical Twilight 5:18 AM ADT 8:51 PM ADT
Moon 8:42 PM ADT (9/22) 10:28 AM ADT (9/22)
Length of Visible Light 13h 10m
Length of Day
12h 10m
Waning Gibbous, 89% of the Moon is Illuminated
Sep 22
Waning Gibbous
Sep 27
Last Quarter
Oct 4
New
Oct 11
First Quarter
Oct 18
Full

Hourly Weather History & Observations

Time (ADT) Temp. Dew Point Humidity Pressure Visibility Wind Dir Wind Speed Gust Speed Precip Events Conditions
12:00 AM 60.8 °F 57.2 °F 88% 29.93 in 15.0 mi South 17.3 mph - N/A   Partly Cloudy
1:00 AM 60.8 °F 57.2 °F 88% 29.92 in 15.0 mi South 13.8 mph 23.0 mph N/A   Partly Cloudy
2:00 AM 60.8 °F 57.2 °F 88% 29.92 in 15.0 mi South 18.4 mph - N/A   Clear
3:00 AM 60 °F 57 °F 88% 29.92 in 15 mi SSW 10.4 mph - -  
3:00 AM 60.8 °F 57.2 °F 88% 29.92 in 15.0 mi SSW 12.7 mph - N/A   Clear
4:00 AM 60.8 °F 57.2 °F 88% 29.90 in 15.0 mi South 16.1 mph 23.0 mph N/A   Scattered Clouds
5:00 AM 60.8 °F 57.2 °F 88% 29.90 in 15.0 mi South 12.7 mph - N/A   Partly Cloudy
5:40 AM 60.8 °F 59.0 °F 94% 29.91 in 15.0 mi South 12.7 mph - N/A   Mostly Cloudy
6:00 AM 60.8 °F 59.0 °F 94% 29.90 in 15.0 mi South 12.7 mph - N/A   Overcast
7:00 AM 62.6 °F 60.8 °F 94% 29.90 in 15.0 mi South 16.1 mph - N/A   Mostly Cloudy
7:38 AM 62.6 °F 60.8 °F 94% 29.89 in 15.0 mi South 17.3 mph 24.2 mph N/A   Mostly Cloudy
8:00 AM 64.4 °F 60.8 °F 88% 29.88 in 15.0 mi South 19.6 mph - N/A   Mostly Cloudy
9:00 AM 66 °F 62 °F 84% 29.89 in 15 mi South 18.4 mph - -   Scattered Clouds
9:00 AM 66.2 °F 62.6 °F 88% 29.89 in 15.0 mi South 17.3 mph 25.3 mph N/A   Scattered Clouds
10:00 AM 68.0 °F 62.6 °F 83% 29.89 in 15.0 mi SSE 15.0 mph - N/A   Mostly Cloudy
11:00 AM 71.6 °F 64.4 °F 78% 29.87 in 15.0 mi South 19.6 mph 26.5 mph N/A   Scattered Clouds
12:00 PM 73.4 °F 64.4 °F 73% 29.85 in 15.0 mi South 19.6 mph 27.6 mph N/A   Mostly Cloudy
1:00 PM 73.4 °F 64.4 °F 73% 29.82 in 15.0 mi South 25.3 mph - N/A   Mostly Cloudy
2:00 PM 75.2 °F 64.4 °F 69% 29.79 in 15.0 mi South 24.2 mph 33.4 mph N/A   Mostly Cloudy
3:00 PM 74 °F 62 °F 58% 29.77 in 15 mi South 23.0 mph - -   Scattered Clouds
3:00 PM 73.4 °F 62.6 °F 69% 29.77 in 15.0 mi South 24.2 mph 31.1 mph N/A   Mostly Cloudy
4:00 PM 73.4 °F 60.8 °F 65% 29.75 in 15.0 mi South 25.3 mph 33.4 mph N/A   Mostly Cloudy
5:00 PM 71.6 °F 60.8 °F 69% 29.73 in 15.0 mi South 21.9 mph 29.9 mph N/A   Mostly Cloudy
6:00 PM 69.8 °F 60.8 °F 73% 29.73 in 15.0 mi South 19.6 mph 26.5 mph N/A   Mostly Cloudy
7:00 PM 69.8 °F 62.6 °F 78% 29.73 in 15.0 mi SSE 19.6 mph 26.5 mph N/A   Mostly Cloudy
8:00 PM 69.8 °F 62.6 °F 78% 29.72 in 15.0 mi South 19.6 mph 27.6 mph N/A   Overcast
9:00 PM 69 °F 63 °F 76% 29.70 in 15 mi SSE 20.7 mph - -   Overcast
9:00 PM 69.8 °F 62.6 °F 78% 29.70 in 15.0 mi SSE 19.6 mph 27.6 mph N/A   Overcast
10:00 PM 68.0 °F 62.6 °F 83% 29.69 in 15.0 mi SSE 18.4 mph - N/A   Overcast
11:00 PM 68.0 °F 64.4 °F 88% 29.67 in 15.0 mi SSE 17.3 mph - N/A   Overcast